Regional Weather Roundup
Issued by NWS New Orleans/Baton Rouge, LA

Home | Current Version | Previous Version | Text Only | Print | Product List | Glossary On
Versions: 1 2 3 4 5 6 7 8 9 10 11 12 13 14 15 16 17 18 19 20 21 22 23 24 25 26 27 28 29 30 31 32 33 34 35 36 37 38 39 40 41 42 43 44 45 46 47 48 49 50
000
ASUS44 KLIX 272311
RWRLIX
NEW ORLEANS REGIONAL WEATHER ROUNDUP
NATIONAL WEATHER SERVICE NEW ORLEANS LA
600 PM CDT WED JUL 27 2016

NOTE: "FAIR" INDICATES FEW OR NO CLOUDS BELOW 12,000 FEET WITH NO
      SIGNIFICANT WEATHER AND/OR OBSTRUCTIONS TO VISIBILITY.
      SKY/WX - SKY CONDITION AND SIGNIFICANT WEATHER.
      TMP - AIR TEMPERATURE.     DP    - DEWPOINT TEMPERATURE.
      RH  - RELATIVE HUMIDITY.   PRES  - PRESSURE.
      HI  - HEAT INDEX.          WCI   - WIND CHILL INDEX.

*  THESE STATIONS ARE NOT NWS OR FAA STATIONS AND ARE NOT UNDER
   NWS QUALITY CONTROL.

LAZ038-040-048-061>063-065>067-069-280000-
SOUTHEAST LOUISIANA

CITY           SKY/WX    TMP DP  RH WIND       PRES   REMARKS
N.O. AUDUBON     N/A     87  74  64 MISG        N/A  HX  96
N.O. INTL ARPT PTSUNNY   87  73  62 SW7       30.01F
N.O. LAKEFRONT PTSUNNY   85  69  58 W6        30.02F
N.O. DOWNTOWN*   N/A     87  71  58 S6        30.03F
RESERVE*         N/A     85  73  66 CALM      30.01S
SLIDELL        PTSUNNY   83  72  69 SW6       30.02F
BATON ROUGE    CLOUDY    82  71  69 SW7       30.00S
BOOTHVILLE     MOSUNNY   81  75  82 CALM      30.04F
BELLE CHASSE   CLOUDY    84  73  69 VRB6      30.02F
BOGALUSA*        N/A     83  73  71 SW5       30.03S
GALLIANO*      CLOUDY    85  73  65 NW3       30.02F
NEW ROADS*       N/A     81  73  77 S7        30.00S
GONZALES*        N/A     82  73  74 CALM      30.00S
HAMMOND*       PTSUNNY   82  70  65 SW6       30.01F
HOUMA*         MOSUNNY   82  73  74 CALM      30.02S
PORT FOURCHON* CLEAR     81  73  78 VRB3      30.02F

$$

MSZ070-080>082-280000-
SOUTHERN MISSISSIPPI

CITY           SKY/WX    TMP DP  RH WIND       PRES   REMARKS
MCCOMB         CLOUDY    77  73  87 S6        30.01S
GULFPORT       CLOUDY    84  73  69 SW6       30.02S
BILOXI         PTSUNNY   81  75  83 VRB5      30.02S
PASCAGOULA     MOSUNNY   84  79  85 VRB6      30.03S HX  96

$$

COASTAL OBSERVATIONS
LAKE AND NEARSHORE STATIONS

STATION/POSITION TIME  TEMP    WIND        PRES    WAVE
                       AIR SEA DIR/SP/G            HT/PER
                 (UTC) (F)     (DEG/KT/KT) (MB)    (FT/S)
PASCAGOULA       2212   83     240/  9/ 13 1016.6
WAVELAND YACHT   2200      88                N/A
GRAND ISLE       2200      86                N/A
SOUTHWEST PASS   2206          260/ 15/ 22   N/A
NEW CANAL        2200      86                N/A
SHELL BEACH      2200      87                N/A

OFFSHORE STATIONS

STATION/POSITION TIME  TEMP    WIND        PRES    WAVE
                       AIR SEA DIR/SP/G            HT/PER
                 (UTC) (F)     (DEG/KT/KT) (MB)    (FT/S)
64 S DAUPHIN ISL 2200   86 87  200/ 10/ 12 1016.5

$$




USA.gov is the U.S. government's official web portal to all federal, state and local government web resources and services.